STARLINK-34698, 66445

Orbit data source: Space-Track

STARLINK-34698, 66445 is a payload satellite owned by SpaceX/Seattle (US) in LEO that was launched on Tue, 11 Nov 2025 UTC via an FALCON 9 launch vehicle from the Air Force Eastern Test Range (AFETR). Payload-class satellites include a variety of spacecraft equipped with specific instruments for various scientific and technological missions. These include communications satellites like Starlink; space stations such as the ISS; scientific satellites like the Hubble; Earth observation satellites from companies like Planet Labs, Umbra, and HawkEye 360; GPS; miniature CubeSats for education and research; and military/defense satellites.

Loading next visibility...
Identifier
66445, 2025-259Z
Orbit
LEO
Country
Flag of USUS
Related business
Manufacturer
SpaceX/Seattle
Mission
Operational Commercial Communications
Bus & Motor
STARLINK V2MO, Unknown motor
Mass
575 kg wet, ~530 kg dry
Launch date (UTC)
2025-11-11 (7 months ago)
Launch vehicle
FALCON 9
Launch site
Air Force Eastern Test Range (AFETR)
Object type
Payload
Rocket body
Debris
Shape & HBR
Box + 2 Pan, 17.7 m
Radar Cross Section
36.964 m², Large (>1 m²)

Expand to show TLE details & history
Last TLE update: 15 hours ago

TLE from 15 hours ago
0 STARLINK-34698
1 66445U 25259Z   26150.07132154  .00022213  00000-0  81429-3 0  9992
2 66445  42.9966 175.0765 0000778 216.7097 143.3702 15.27580385 31826
Epoch: 2026-05-30T01:42Z
TLE epoch observation values (Epoch: 2026-05-30T01:42:42.181Z)
Latitude
0.00004°
Longitude
-98.19182°
Altitude
483.251 km
Speed
7.625 km/s
True Right ascension
11h 40m 18s
True Declination
0° 00' 00"
Sunlit
Object was in daylight at epoch
Visualization orbit readout
Latitude
Unknown
Longitude
Unknown
Altitude
Unknown
Speed
Unknown
Apparent Right ascension
Unknown
Apparent Declination
Unknown
Sunlit
N/A
Visualization observer readout
Local Sidereal Time
02:07:25
Azimuth
Unknown
Elevation
Unknown
Doppler factor
Unknown
Orbital elements
Apogee altitude
485.528 km
Perigee altitude
484.46 km
Semi-major axis
6,863.131 km
Eccentricity
0.00008
Inclination
42.9966°
RAAN
175.0765°
Arg. of periapsis
216.7097°
True anomaly
143.37552°
Mean anomaly
143.3702°
Eccentric anomaly
143.37286°
Mean motion
3.81733 °/min
Orbital period
94.31 mins
BSTAR
0.00081429
Loading maneuver chart data...
Computing Atmospheric mass density...
Loading historical data...
Loading historical data...
Loading historical data...
Loading historical data...
Loading historical data...
Loading historical data...
Loading historical data...

Documentation

Showing up to 5 results
|